This is the latest recevied weather packets stored in our database for station/object DL1SEW-6. If no packets are shown the sender has not sent any weather packets the latest 10 day(s).
| Time | Temp. | Humidity | Pressure | Rain* | Wind** | Luminosity | Snow |
|---|---|---|---|---|---|---|---|
| 1777983005 | 14.44° C | 81% | 1007.9 hPa | 0.76 mm | - | 147 W/m² | - |
| 1777982107 | 14.44° C | 80% | 1007.9 hPa | 0.76 mm | - | 144 W/m² | - |
| 1777981206 | 15° C | 80% | 1007.9 hPa | 1.02 mm | - | 157 W/m² | - |
| 1777980311 | 15° C | 80% | 1007.9 hPa | 0.76 mm | - | 166 W/m² | - |
| 1777979409 | 15.56° C | 79% | 1007.9 hPa | 0.51 mm | - | 192 W/m² | - |
| 1777978509 | 16.11° C | 77% | 1007.9 hPa | 0.51 mm | - | 172 W/m² | - |
| 1777977610 | 16.67° C | 70% | 1008 hPa | 0 mm | - | 104 W/m² | - |
| 1777976709 | 17.22° C | 63% | 1007.9 hPa | 0 mm | - | 99 W/m² | - |
| 1777975810 | 17.78° C | 61% | 1007.9 hPa | 0 mm | - | 190 W/m² | - |
| 1777974911 | 17.78° C | 59% | 1007.9 hPa | 0 mm | - | 208 W/m² | - |
| 1777974008 | 18.33° C | 59% | 1008.1 hPa | 0 mm | - | 360 W/m² | - |
| 1777973108 | 17.78° C | 61% | 1008.1 hPa | 0 mm | - | 512 W/m² | - |
| 1777972208 | 17.78° C | 61% | 1008.2 hPa | 0 mm | - | 513 W/m² | - |
| 1777971308 | 17.78° C | 61% | 1008.3 hPa | 0 mm | - | 431 W/m² | - |
| 1777970408 | 17.22° C | 62% | 1008.3 hPa | 0 mm | - | 695 W/m² | - |
| 1777969508 | 16.11° C | 66% | 1008.4 hPa | 0 mm | - | 657 W/m² | - |
| 1777968607 | 15.56° C | 65% | 1008.3 hPa | 0 mm | - | 390 W/m² | - |
| 1777967707 | 15.56° C | 67% | 1008.4 hPa | 0 mm | - | 394 W/m² | - |
| 1777966807 | 15.56° C | 66% | 1008.6 hPa | 0 mm | - | 311 W/m² | - |
| 1777965909 | 14.44° C | 73% | 1008.6 hPa | 0 mm | - | 577 W/m² | - |
| 1777965007 | 13.89° C | 76% | 1008.6 hPa | 0 mm | - | 300 W/m² | - |
| 1777964107 | 13.33° C | 76% | 1008.5 hPa | 0 mm | - | 148 W/m² | - |
| 1777963207 | 13.33° C | 77% | 1008.4 hPa | 0 mm | - | 184 W/m² | - |
| 1777962306 | 12.22° C | 80% | 1008.4 hPa | 0 mm | - | 257 W/m² | - |
| 1777961406 | 11.67° C | 82% | 1008.4 hPa | 0 mm | - | 192 W/m² | - |
* Rain latest hour (hover to see other rain measurements)
** Current wind speed in m/s (hover to see current wind gust speed)